GW0353 Weather Reports


time (UTC)temp
C
wind
direction
speed
KPH
gust
KPH
rain 1hr
cm
rain 24hr
cm
rain mn
cm
humidity
%
barometer
mb
20260506025556 7 239 0.0 4.8 0.00 0.30 0.30 62 1018.4
20260506025056 8 0 0.0 3.2 0.00 0.30 0.30 62 1018.4
20260506024558 8 0 0.0 1.6 0.00 0.30 0.30 61 1018.3
20260506024058 8 0 0.0 1.6 0.00 0.30 0.30 60 1018.2
20260506023558 8 0 0.0 1.6 0.00 0.30 0.30 59 1018.1
20260506023102 9 0 0.0 1.6 0.00 0.30 0.30 58 1018.2
20260506022557 9 0 0.0 1.6 0.00 0.30 0.30 58 1018.0
20260506022057 10 0 0.0 1.6 0.00 0.30 0.30 57 1017.9
20260506021605 10 0 0.0 1.6 0.00 0.30 0.30 57 1017.9
20260506021057 10 0 0.0 3.2 0.00 0.30 0.30 58 1017.7
20260506020559 10 258 0.0 3.2 0.00 0.30 0.30 57 1017.7
20260506015557 10 194 0.0 3.2 0.00 0.38 0.30 56 1017.6
20260506015057 10 150 0.0 1.6 0.00 0.38 0.30 56 1017.6
20260506014600 11 0 0.0 3.2 0.00 0.38 0.30 55 1017.5
20260506014056 11 250 0.0 3.2 0.00 0.38 0.30 54 1017.5
20260506013556 11 0 0.0 3.2 0.00 0.38 0.30 54 1017.4
20260506013107 11 298 0.0 3.2 0.00 0.38 0.30 53 1017.4
20260506012556 11 0 0.0 3.2 0.00 0.38 0.30 53 1017.3
20260506012100 11 317 0.0 8.0 0.00 0.38 0.30 52 1017.3
20260506011601 11 0 0.0 8.0 0.00 0.38 0.30 51 1017.3
20260506011057 12 304 1.6 4.8 0.00 0.38 0.30 47 1017.3
20260506010557 13 5 1.6 8.0 0.00 0.38 0.30 47 1017.3
20260506010058 12 0 1.6 8.0 0.00 0.38 0.30 45 1017.0
20260506005556 13 0 1.6 9.7 0.00 0.38 0.30 47 1017.0
20260506005057 13 310 1.6 9.7 0.00 0.38 0.30 47 1016.9
20260506004604 12 0 0.0 6.4 0.00 0.38 0.30 49 1016.8
20260506004057 12 299 1.6 6.4 0.00 0.38 0.30 49 1016.8
20260506003601 12 317 1.6 6.4 0.00 0.38 0.30 49 1016.8
20260506003118 12 0 1.6 6.4 0.00 0.38 0.30 49 1016.8
20260506002558 12 0 1.6 4.8 0.00 0.38 0.30 53 1016.8
20260506002056 11 0 1.6 8.0 0.00 0.38 0.30 55 1016.8
20260506001611 11 285 0.0 8.0 0.00 0.38 0.30 55 1016.8
20260506001057 11 302 1.6 6.4 0.00 0.38 0.30 57 1016.6
20260506000557 11 295 1.6 6.4 0.00 0.38 0.30 57 1016.7
20260506000112 11 220 1.6 6.4 0.00 0.38 0.30 57 1016.8
20260505235557 11 198 0.0 11.3 0.00 0.38 0.30 56 1016.7
20260505235057 11 0 3.2 11.3 0.00 0.38 0.30 55 1016.8
20260505234613 11 215 1.6 9.7 0.00 0.38 0.30 55 1016.7
20260505234059 12 315 1.6 8.0 0.00 0.38 0.30 56 1016.7
20260505233557 12 0 1.6 6.4 0.00 0.38 0.30 57 1016.5
20260505233100 11 138 1.6 12.9 0.00 0.38 0.30 57 1016.5
20260505232557 11 0 3.2 12.9 0.00 0.38 0.30 55 1016.6
20260505232059 12 316 1.6 12.9 0.00 0.38 0.30 57 1016.5
20260505231600 11 184 3.2 9.7 0.00 0.38 0.30 58 1016.5
20260505231057 11 0 1.6 14.5 0.00 0.38 0.30 55 1016.5
20260505230559 11 145 3.2 14.5 0.00 0.38 0.30 57 1016.6
20260505230058 11 315 3.2 9.7 0.00 0.38 0.30 57 1016.5
20260505225559 11 229 0.0 9.7 0.00 0.38 0.30 49 1016.5
20260505225058 11 280 3.2 9.7 0.00 0.38 0.30 48 1016.3
20260505224557 11 332 4.8 9.7 0.00 0.38 0.30 47 1016.3
20260505224056 12 315 1.6 6.4 0.00 0.38 0.30 47 1016.1
20260505223556 12 312 1.6 8.0 0.00 0.38 0.30 47 1016.2
20260505223108 12 59 3.2 8.0 0.00 0.38 0.30 48 1016.4
20260505222556 12 142 1.6 8.0 0.00 0.38 0.30 49 1016.4
20260505222056 12 354 1.6 8.0 0.00 0.38 0.30 48 1016.3
20260505221557 12 0 3.2 11.3 0.00 0.38 0.30 47 1016.4
20260505221058 12 49 4.8 11.3 0.00 0.38 0.30 49 1016.4
20260505220557 12 293 3.2 8.0 0.00 0.38 0.30 47 1016.5
20260505220100 12 60 1.6 8.0 0.00 0.38 0.30 50 1016.5
20260505215602 11 353 3.2 11.3 0.00 0.38 0.30 51 1016.5
20260505215057 11 47 3.2 11.3 0.00 0.38 0.30 53 1016.6
20260505214604 11 113 0.0 9.7 0.00 0.38 0.30 54 1016.6
20260505214057 11 57 4.8 9.7 0.00 0.38 0.30 53 1016.6
20260505213559 10 331 3.2 8.0 0.00 0.38 0.30 56 1016.7
20260505213057 10 95 3.2 8.0 0.00 0.38 0.30 55 1016.7
20260505212556 10 45 3.2 8.0 0.00 0.38 0.30 56 1016.7
20260505212058 10 74 0.0 6.4 0.00 0.38 0.30 55 1016.7
20260505211634 11 0 1.6 6.4 0.00 0.38 0.30 52 1016.6
20260505211057 11 0 1.6 6.4 0.00 0.38 0.30 57 1016.6
20260505210556 11 0 1.6 6.4 0.00 0.38 0.30 58 1016.6
20260505210058 10 66 1.6 6.4 0.00 0.38 0.30 58 1016.5
20260505205557 10 140 1.6 8.0 0.00 0.38 0.30 58 1016.6
20260505205058 11 0 3.2 8.0 0.00 0.38 0.30 56 1016.8
20260505204559 11 0 0.0 4.8 0.00 0.38 0.30 62 1016.6
20260505204100 10 56 1.6 4.8 0.00 0.38 0.30 59 1016.6
20260505203557 11 259 0.0 4.8 0.00 0.38 0.30 60 1016.7
20260505203126 10 138 0.0 4.8 0.00 0.38 0.30 64 1016.8
20260505202557 10 255 0.0 8.0 0.00 0.38 0.30 65 1016.8
20260505202057 8 240 3.2 8.0 0.00 0.38 0.30 65 1016.8
20260505201556 8 102 3.2 8.0 0.00 0.38 0.30 69 1016.8
20260505201057 8 155 3.2 6.4 0.00 0.38 0.30 66 1016.7
20260505200558 8 248 1.6 6.4 0.00 0.38 0.30 69 1017.0
20260505200058 8 250 0.0 4.8 0.00 0.38 0.30 67 1017.1
20260505195558 8 229 0.0 4.8 0.00 0.38 0.30 64 1017.1
20260505195058 8 174 1.6 8.0 0.00 0.38 0.30 64 1017.1
20260505194558 7 0 3.2 8.0 0.00 0.38 0.30 67 1017.2
20260505194058 7 52 1.6 8.0 0.00 0.38 0.30 70 1017.2
20260505193557 7 42 0.0 9.7 0.00 0.38 0.30 69 1017.2
20260505193054 8 321 3.2 9.7 0.00 0.38 0.30 68 1017.2
20260505192559 8 72 1.6 8.0 0.00 0.38 0.30 64 1017.2
20260505192057 8 0 1.6 8.0 0.00 0.38 0.30 71 1017.0
20260505191558 8 46 0.0 8.0 0.00 0.38 0.30 71 1016.8
20260505191058 8 51 0.0 4.8 0.00 0.38 0.30 70 1016.8
20260505190558 8 0 0.0 4.8 0.00 0.38 0.30 74 1016.8
20260505190059 7 0 1.6 4.8 0.00 0.38 0.30 74 1016.8
20260505185558 7 15 0.0 4.8 0.00 0.38 0.30 83 1016.7
20260505185058 7 79 1.6 3.2 0.00 0.38 0.30 80 1016.7
20260505184558 7 1 1.6 3.2 0.00 0.38 0.30 82 1016.7
20260505184058 6 0 0.0 1.6 0.00 0.38 0.30 85 1016.7
20260505183557 6 0 0.0 4.8 0.00 0.38 0.30 84 1016.6
20260505183102 5 0 0.0 4.8 0.00 0.38 0.30 84 1016.6
20260505182600 5 83 0.0 1.6 0.00 0.38 0.30 83 1016.5
20260505182101 5 0 0.0 3.2 0.00 0.38 0.30 85 1016.6
20260505181555 5 64 0.0 3.2 0.00 0.38 0.30 86 1016.5
20260505181057 5 51 0.0 1.6 0.00 0.38 0.30 87 1016.4
20260505180558 5 0 0.0 1.6 0.00 0.38 0.30 86 1016.3
20260505175558 4 103 1.6 3.2 0.00 0.38 0.30 88 1016.2
20260505175104 4 60 0.0 1.6 0.00 0.38 0.30 89 1016.1
20260505174556 4 0 0.0 1.6 0.00 0.38 0.30 90 1016.0
20260505174057 4 0 0.0 3.2 0.00 0.38 0.30 91 1016.0
20260505173603 4 0 0.0 3.2 0.00 0.38 0.30 90 1015.9
20260505173056 3 51 0.0 1.6 0.00 0.38 0.30 90 1015.9
20260505172600 3 0 0.0 1.6 0.00 0.38 0.30 91 1016.0
20260505172057 3 0 0.0 3.2 0.03 0.38 0.30 91 1015.9
20260505171558 3 0 1.6 3.2 0.03 0.38 0.30 91 1016.0
20260505171058 3 0 1.6 1.6 0.03 0.38 0.30 91 1015.9
20260505170557 3 1 0.0 1.6 0.03 0.38 0.30 92 1015.9
20260505170055 3 0 0.0 1.6 0.03 0.38 0.30 93 1015.8
20260505165557 3 0 0.0 1.6 0.05 0.38 0.30 93 1015.7
20260505165057 2 0 0.0 0.0 0.05 0.38 0.30 93 1016.0
20260505164556 2 0 0.0 0.0 0.05 0.38 0.30 93 1015.9
20260505164059 2 0 0.0 1.6 0.05 0.38 0.30 93 1015.9
20260505163557 2 0 0.0 1.6 0.05 0.38 0.30 93 1015.7
20260505163055 2 53 0.0 1.6 0.05 0.38 0.30 93 1015.7
20260505162558 2 0 0.0 1.6 0.05 0.38 0.30 93 1015.6
20260505162058 2 55 0.0 1.6 0.03 0.36 0.28 93 1015.6
20260505161558 2 55 0.0 0.0 0.05 0.36 0.28 92 1015.5
20260505161056 2 0 0.0 1.6 0.08 0.36 0.28 93 1015.4
20260505160558 2 0 0.0 3.2 0.08 0.36 0.28 93 1015.5
20260505153057 2 300 0.0 3.2 0.13 0.33 0.25 92 1015.0
20260505152601 2 0 0.0 1.6 0.15 0.33 0.25 92 1014.9
20260505152057 2 0 0.0 0.0 0.15 0.33 0.25 92 1014.7
20260505151557 2 0 0.0 0.0 0.15 0.30 0.23 92 1014.8
20260505151057 2 0 0.0 0.0 0.13 0.28 0.20 92 1014.7
20260505150557 1 0 0.0 0.0 0.13 0.28 0.20 92 1014.5
20260505140557 2 0 0.0 0.0 0.05 0.15 0.08 90 1014.2
20260505140123 2 0 0.0 0.0 0.03 0.13 0.05 90 1014.0
20260505130103 2 82 1.6 1.6 0.00 0.10 0.03 91 1013.3
20260505124602 2 157 0.0 1.6 0.00 0.10 0.03 92 1013.3
20260505124100 2 173 0.0 1.6 0.00 0.10 0.03 92 1013.3
20260505123557 2 0 0.0 0.0 0.00 0.10 0.03 92 1013.3
20260505123101 2 0 0.0 0.0 0.00 0.10 0.03 92 1013.2
20260505122557 2 0 0.0 0.0 0.00 0.10 0.03 92 1013.2
20260505122057 2 0 0.0 0.0 0.00 0.10 0.03 92 1013.3
20260505121601 2 0 0.0 1.6 0.00 0.10 0.03 92 1013.4
20260505121057 2 260 0.0 1.6 0.00 0.10 0.03 93 1013.4
20260505120557 2 0 0.0 1.6 0.00 0.10 0.03 93 1013.2
20260505120112 2 0 0.0 1.6 0.00 0.10 0.03 92 1013.5
20260505115556 2 0 0.0 1.6 0.00 0.10 0.03 92 1013.5
20260505115057 2 0 0.0 0.0 0.00 0.10 0.03 92 1013.4
20260505114601 2 0 0.0 0.0 0.00 0.10 0.03 92 1013.5
20260505114057 2 0 0.0 0.0 0.00 0.10 0.03 93 1013.5
20260505113601 2 0 0.0 0.0 0.00 0.10 0.03 93 1013.6
20260505113107 2 0 0.0 0.0 0.00 0.10 0.03 93 1013.5
20260505112558 2 0 0.0 0.0 0.00 0.10 0.03 93 1013.7
20260505112057 2 0 0.0 0.0 0.00 0.10 0.03 93 1013.7
20260505111559 2 0 0.0 0.0 0.00 0.10 0.03 93 1013.7
20260505111057 2 0 0.0 0.0 0.00 0.10 0.03 93 1013.7
20260505110557 2 0 0.0 0.0 0.00 0.10 0.03 93 1013.5
20260505102058 2 0 0.0 0.0 0.03 0.10 0.03 93 1013.5
20260505101604 2 0 0.0 0.0 0.03 0.10 0.03 93 1013.6
20260505101059 2 0 0.0 0.0 0.03 0.10 0.03 93 1013.7
20260505100559 2 0 0.0 0.0 0.03 0.10 0.03 93 1013.7
20260505100101 2 0 0.0 0.0 0.03 0.10 0.03 93 1013.7
20260505095559 2 0 0.0 0.0 0.03 0.10 0.03 93 1013.7
20260505095121 2 0 0.0 0.0 0.03 0.10 0.03 93 1013.7
20260505094602 2 0 0.0 0.0 0.03 0.10 0.03 93 1013.9
20260505094103 2 0 0.0 0.0 0.03 0.10 0.03 92 1014.0
20260505093559 2 0 0.0 0.0 0.03 0.10 0.03 92 1014.0
20260505093059 2 0 0.0 0.0 0.03 0.10 0.03 92 1014.1
20260505092559 2 0 0.0 1.6 0.00 0.08 0.00 92 1014.1
20260505092059 2 0 0.0 1.6 0.00 0.08 0.00 92 1014.1
20260505091611 2 156 0.0 1.6 0.00 0.08 0.00 92 1014.2
20260505091058 2 77 0.0 4.8 0.00 0.08 0.00 92 1014.4
20260505090559 2 72 0.0 4.8 0.00 0.08 0.00 92 1014.3
20260505085603 2 58 1.6 8.0 0.00 0.08 0.00 92 1014.4
20260505085059 2 54 3.2 8.0 0.00 0.08 0.00 92 1014.4
20260505084607 2 71 0.0 3.2 0.00 0.08 0.00 92 1014.5
20260505084059 2 72 0.0 6.4 0.00 0.08 0.00 92 1014.5
20260505083603 1 72 3.2 9.7 0.00 0.08 0.00 92 1014.5
20260505083107 1 79 4.8 9.7 0.00 0.08 0.00 92 1014.5
20260505082559 1 98 6.4 19.3 0.00 0.08 0.00 92 1014.6
20260505082058 1 129 4.8 19.3 0.00 0.08 0.00 91 1014.7
20260505081558 1 65 6.4 17.7 0.00 0.08 0.00 91 1014.6
20260505081059 2 91 4.8 16.1 0.00 0.08 0.00 90 1014.6
20260505080558 2 92 8.0 16.1 0.00 0.08 0.00 90 1014.7
20260505080057 2 72 6.4 17.7 0.00 0.08 0.00 90 1014.6
20260505075559 2 89 8.0 17.7 0.00 0.08 0.00 89 1014.6
20260505075059 2 74 8.0 19.3 0.00 0.08 0.00 88 1014.6
20260505074559 2 65 12.9 19.3 0.00 0.08 0.00 88 1014.7
20260505074057 2 79 6.4 14.5 0.00 0.08 0.00 87 1014.8
20260505073557 2 92 6.4 11.3 0.00 0.08 0.00 87 1014.7
20260505073103 2 82 3.2 14.5 0.00 0.08 0.00 87 1014.8
20260505072602 2 100 4.8 16.1 0.00 0.08 0.00 87 1014.7
20260505072100 2 86 6.4 16.1 0.00 0.08 0.00 86 1014.7
20260505071601 2 72 9.7 16.1 0.00 0.08 0.00 85 1014.7
20260505071058 3 82 3.2 11.3 0.00 0.08 0.00 84 1014.8
20260505070601 3 68 4.8 11.3 0.00 0.08 0.00 84 1014.8
20260505070106 3 77 4.8 11.3 0.00 0.08 0.00 83 1014.7
20260505065558 3 63 4.8 9.7 0.00 0.08 0.08 83 1014.7
20260505065057 3 93 3.2 6.4 0.00 0.08 0.08 82 1014.8
20260505064559 3 82 3.2 8.0 0.00 0.08 0.08 83 1014.8
20260505064057 3 229 3.2 9.7 0.00 0.08 0.08 83 1014.8
20260505063557 3 130 4.8 9.7 0.00 0.08 0.08 84 1014.8
20260505063059 3 101 1.6 11.3 0.00 0.08 0.08 86 1014.7
20260505062559 3 91 4.8 11.3 0.00 0.08 0.08 86 1015.0
20260505062101 3 70 4.8 12.9 0.00 0.08 0.08 86 1015.0
20260505061618 3 114 6.4 14.5 0.00 0.08 0.08 86 1015.0
20260505061057 3 98 6.4 16.1 0.00 0.08 0.08 87 1015.0
20260505060559 3 119 4.8 16.1 0.00 0.08 0.08 86 1015.0
20260505060103 3 139 6.4 14.5 0.00 0.08 0.08 86 1014.8
20260505055557 3 109 6.4 9.7 0.00 0.08 0.08 86 1014.9
20260505055058 3 120 4.8 8.0 0.00 0.08 0.08 85 1014.9
20260505054559 3 136 3.2 8.0 0.00 0.08 0.08 85 1014.9
20260505054057 3 115 3.2 8.0 0.00 0.08 0.08 85 1014.9
20260505053557 3 146 0.0 3.2 0.00 0.08 0.08 85 1014.8
20260505053059 3 68 0.0 3.2 0.00 0.08 0.08 84 1015.0
20260505052557 3 184 0.0 0.0 0.00 0.08 0.08 83 1014.7
20260505052058 4 0 0.0 1.6 0.00 0.08 0.08 83 1014.7
20260505051558 4 0 0.0 1.6 0.00 0.08 0.08 82 1014.7
20260505051058 4 0 0.0 0.0 0.00 0.08 0.08 81 1014.7
20260505050558 4 0 0.0 0.0 0.00 0.08 0.08 80 1014.8
20260505041604 5 140 1.6 3.2 0.00 0.08 0.08 77 1014.4
20260505041058 4 135 0.0 4.8 0.00 0.08 0.08 77 1014.4
20260505040558 4 101 1.6 4.8 0.00 0.08 0.08 78 1014.4
20260505040104 5 0 1.6 4.8 0.00 0.08 0.08 77 1014.3
20260505035557 5 117 0.0 4.8 0.00 0.08 0.08 76 1014.3
20260505035057 5 84 0.0 6.4 0.00 0.08 0.08 74 1014.2
20260505034609 5 68 0.0 8.0 0.00 0.08 0.08 75 1014.1
20260505034059 5 222 1.6 8.0 0.00 0.08 0.08 75 1014.2
20260505033557 5 135 3.2 8.0 0.00 0.08 0.08 78 1014.2
20260505033105 5 108 1.6 6.4 0.00 0.08 0.08 79 1014.1
20260505032558 5 63 1.6 8.0 0.00 0.08 0.08 80 1013.9
20260505032058 5 79 1.6 8.0 0.00 0.08 0.08 79 1013.7
20260505031558 5 113 4.8 9.7 0.00 0.08 0.08 79 1013.7
20260505031057 5 89 3.2 9.7 0.00 0.08 0.08 80 1013.7
20260505030558 5 68 1.6 8.0 0.00 0.08 0.08 79 1013.7
20260505030112 5 70 4.8 8.0 0.00 0.08 0.08 81 1013.6